Harlan, KY

12:35 AM EDT on June 25, 2017 (GMT -0400)
Harlan

Weather History for KI35 - March, 2014

Change the Weather History Date:

Tuesday, March 11, 2014

  Actual Average (KLOZ) Record (KLOZ)
Temperature  
Mean Temperature 54 °F -  
Max Temperature 73 °F 58 °F 79 °F (1990)
Min Temperature 35 °F 34 °F 18 °F (1965)
Degree Days  
Heating Degree Days 11    
Growing Degree Days 4 (Base 50)    
Moisture  
Dew Point 36 °F    
Average Humidity 58    
Maximum Humidity 100    
Minimum Humidity 23    
Precipitation  
Precipitation 0.00 in - - ()
Sea Level Pressure  
Sea Level Pressure 29.79 in    
Wind  
Wind Speed 2 mph (SSW)    
Max Wind Speed 9 mph    
Max Gust Speed 17 mph    
Visibility 8 miles    
Events      
Averages and records for this station are not official NWS values.
T = Trace of Precipitation, MM = Missing Value Source: NWS Daily Summary

Daily Weather History Graph

Daily Weather History Graph

Search for Another Location

Airport or City:

Trip Planner

Search our weather history database for the weather conditions in past years. The results will help you decide how hot, cold, wet, or windy it might be!

Date:

Astronomy

Mar. 11, 2014 Rise Set
Actual Time 7:50 AM EDT 7:37 PM EDT
Civil Twilight 7:24 AM EDT 8:03 PM EDT
Nautical Twilight 6:54 AM EDT 8:33 PM EDT
Astronomical Twilight 6:24 AM EDT 9:03 PM EDT
Moon 3:17 PM EDT (3/11) 4:37 AM EDT (3/11)
Length of Visible Light 12h 38m
Length of Day
11h 46m
Waxing Gibbous, 78% of the Moon is Illuminated
Mar 11
Waxing Gibbous
Mar 16
Full
Mar 23
Last Quarter
Mar 30
New
Apr 7
First Quarter

Hourly Weather History & Observations

Time (EDT) Temp. Windchill Dew Point Humidity Pressure Visibility Wind Dir Wind Speed Gust Speed Precip Events Conditions
12:15 AM 46.4 °F 45.2 °F 37.4 °F 71% 29.87 in 10.0 mi East 3.5 mph - N/A   Clear
12:35 AM 44.6 °F - 37.4 °F 76% 29.87 in 10.0 mi Calm Calm - N/A   Clear
12:55 AM 44.6 °F - 37.4 °F 76% 29.86 in 10.0 mi Calm Calm - N/A   Clear
1:15 AM 42.8 °F - 37.4 °F 81% 29.86 in 10.0 mi Calm Calm - N/A   Clear
1:35 AM 42.8 °F - 37.4 °F 81% 29.86 in 10.0 mi Calm Calm - N/A   Clear
1:55 AM 44.6 °F - 37.4 °F 76% 29.86 in 10.0 mi Calm Calm - N/A   Clear
2:15 AM 42.8 °F - 37.4 °F 81% 29.86 in 10.0 mi Calm Calm - N/A   Clear
2:35 AM 42.8 °F - 37.4 °F 81% 29.87 in 10.0 mi Calm Calm - N/A   Clear
2:55 AM 42.8 °F 40.1 °F 37.4 °F 81% 29.87 in 10.0 mi NNE 4.6 mph - N/A   Clear
3:15 AM 41.0 °F - 37.4 °F 87% 29.87 in 10.0 mi Calm Calm - N/A   Clear
3:35 AM 41.0 °F - 37.4 °F 87% 29.87 in 10.0 mi Calm Calm - N/A   Clear
3:55 AM 41.0 °F - 37.4 °F 87% 29.87 in 7.0 mi Calm Calm - N/A   Clear
4:15 AM 39.2 °F - 37.4 °F 93% 29.86 in 7.0 mi Calm Calm - N/A   Clear
4:35 AM 37.4 °F - 35.6 °F 93% 29.85 in 5.0 mi Calm Calm - N/A   Clear
4:55 AM 37.4 °F - 37.4 °F 100% 29.85 in 5.0 mi Calm Calm - N/A   Clear
5:15 AM 37.4 °F - 35.6 °F 93% 29.84 in 5.0 mi Calm Calm - N/A   Clear
5:35 AM 37.4 °F - 35.6 °F 93% 29.84 in 3.0 mi Calm Calm - N/A   Clear
5:55 AM 37.4 °F - 35.6 °F 93% 29.85 in 3.0 mi Calm Calm - N/A   Clear
6:15 AM 37.4 °F - 35.6 °F 93% 29.85 in 4.0 mi Calm Calm - N/A   Clear
6:35 AM 37.4 °F - 35.6 °F 93% 29.86 in 5.0 mi Calm Calm - N/A   Clear
6:55 AM 37.4 °F - 35.6 °F 93% 29.86 in 4.0 mi Calm Calm - N/A   Clear
7:15 AM 35.6 °F - 35.6 °F 100% 29.86 in 1.8 mi Calm Calm - N/A   Unknown
7:35 AM 35.6 °F 32.8 °F 33.8 °F 93% 29.86 in 1.8 mi SE 3.5 mph - N/A   Unknown
7:55 AM 35.6 °F - 35.6 °F 100% 29.86 in 1.8 mi Calm Calm - N/A   Unknown
8:15 AM 35.6 °F - 35.6 °F 100% 29.86 in 2.0 mi Calm Calm - N/A   Clear
8:35 AM 35.6 °F 29.9 °F 33.8 °F 93% 29.86 in 2.0 mi East 6.9 mph - N/A   Mostly Cloudy
8:55 AM 35.6 °F 29.2 °F 35.6 °F 100% 29.86 in 2.5 mi East 8.1 mph - N/A   Scattered Clouds
9:15 AM 39.2 °F - 37.4 °F 93% 29.86 in 5.0 mi Calm Calm - N/A   Clear
9:35 AM 41.0 °F - 37.4 °F 87% 29.86 in 10.0 mi Calm Calm - N/A   Clear
9:55 AM 44.6 °F - 37.4 °F 76% 29.86 in 10.0 mi Calm Calm - N/A   Clear
10:15 AM 46.4 °F - 37.4 °F 71% 29.86 in 10.0 mi Calm Calm - N/A   Clear
10:35 AM 51.8 °F - 39.2 °F 62% 29.86 in 10.0 mi Calm Calm - N/A   Clear
10:55 AM 55.4 °F - 41.0 °F 58% 29.85 in 10.0 mi Calm Calm - N/A   Clear
11:15 AM 59.0 °F - 41.0 °F 51% 29.85 in 10.0 mi Calm Calm - N/A   Clear
11:35 AM 60.8 °F - 41.0 °F 48% 29.84 in 10.0 mi Calm Calm - N/A   Clear
11:55 AM 60.8 °F - 39.2 °F 45% 29.83 in 10.0 mi SSW 5.8 mph - N/A   Clear
12:15 PM 62.6 °F - 39.2 °F 42% 29.82 in 10.0 mi SSW 4.6 mph - N/A   Clear
12:35 PM 64.4 °F - 37.4 °F 37% 29.81 in 10.0 mi SSW 3.5 mph - N/A   Clear
12:55 PM 66.2 °F - 37.4 °F 35% 29.80 in 10.0 mi SW 4.6 mph - N/A   Clear
1:15 PM 68.0 °F - 35.6 °F 30% 29.79 in 10.0 mi SSW 5.8 mph - N/A   Clear
1:35 PM 69.8 °F - 33.8 °F 27% 29.79 in 10.0 mi WSW 5.8 mph - N/A   Clear
1:55 PM 69.8 °F - 33.8 °F 27% 29.77 in 10.0 mi West 8.1 mph - N/A   Clear
2:15 PM 69.8 °F - 33.8 °F 27% 29.76 in 10.0 mi West 9.2 mph - N/A   Clear
2:35 PM 69.8 °F - 33.8 °F 27% 29.76 in 10.0 mi WSW 5.8 mph - N/A   Clear
2:55 PM 69.8 °F - 33.8 °F 27% 29.74 in 10.0 mi SSW 5.8 mph - N/A   Clear
3:15 PM 69.8 °F - 33.8 °F 27% 29.73 in 10.0 mi South 4.6 mph 17.3 mph N/A   Clear
3:35 PM 71.6 °F - 33.8 °F 25% 29.73 in 10.0 mi SSW 5.8 mph - N/A   Clear
3:55 PM 71.6 °F - 33.8 °F 25% 29.72 in 10.0 mi SW 4.6 mph - N/A   Clear
4:15 PM 73.4 °F - 33.8 °F 23% 29.72 in 10.0 mi WSW 9.2 mph - N/A   Clear
4:35 PM 71.6 °F - 33.8 °F 25% 29.71 in 10.0 mi WSW 5.8 mph - N/A   Clear
4:55 PM 73.4 °F - 33.8 °F 23% 29.71 in 10.0 mi South 5.8 mph - N/A   Clear
5:15 PM 71.6 °F - 33.8 °F 25% 29.70 in 10.0 mi Calm Calm - N/A   Clear
5:35 PM 71.6 °F - 33.8 °F 25% 29.70 in 10.0 mi SSW 3.5 mph - N/A   Clear
5:55 PM 71.6 °F - 33.8 °F 25% 29.70 in 10.0 mi SW 3.5 mph - N/A   Clear
6:15 PM 71.6 °F - 33.8 °F 25% 29.70 in 10.0 mi SW 4.6 mph - N/A   Clear
6:35 PM 71.6 °F - 33.8 °F 25% 29.69 in 10.0 mi SSW 4.6 mph - N/A   Clear
6:55 PM 69.8 °F - 33.8 °F 27% 29.70 in 10.0 mi Calm Calm - N/A   Clear
7:15 PM 69.8 °F - 35.6 °F 28% 29.70 in 10.0 mi SE 5.8 mph - N/A   Clear
7:35 PM 68.0 °F - 35.6 °F 30% 29.70 in 10.0 mi ESE 4.6 mph - N/A   Clear
7:55 PM 68.0 °F - 35.6 °F 30% 29.70 in 10.0 mi Calm Calm - N/A   Clear
8:15 PM 66.2 °F - 35.6 °F 32% 29.70 in 10.0 mi Calm Calm - N/A   Clear
8:35 PM 64.4 °F - 35.6 °F 34% 29.71 in 10.0 mi Calm Calm - N/A   Clear
8:55 PM 64.4 °F - 35.6 °F 34% 29.72 in 10.0 mi Calm Calm - N/A   Scattered Clouds
9:15 PM 60.8 °F - 37.4 °F 42% 29.71 in 10.0 mi Calm Calm - N/A   Mostly Cloudy
9:35 PM 60.8 °F - 37.4 °F 42% 29.71 in 10.0 mi Calm Calm - N/A   Scattered Clouds
9:55 PM 59.0 °F - 39.2 °F 48% 29.71 in 10.0 mi Calm Calm - N/A   Clear
10:15 PM 59.0 °F - 37.4 °F 45% 29.70 in 10.0 mi Calm Calm - N/A   Clear
10:35 PM 59.0 °F - 37.4 °F 45% 29.70 in 10.0 mi SW 4.6 mph - N/A   Clear
10:55 PM 55.4 °F - 39.2 °F 54% 29.70 in 10.0 mi Calm Calm - N/A   Clear
11:15 PM 55.4 °F - 39.2 °F 54% 29.70 in 10.0 mi Calm Calm - N/A   Clear
11:35 PM 57.2 °F - 39.2 °F 51% 29.69 in 10.0 mi Calm Calm - N/A   Scattered Clouds
11:55 PM 53.6 °F - 41.0 °F 62% 29.68 in 10.0 mi Calm Calm - N/A   Scattered Clouds